Tracking 29892 objects as of 21-Nov-2024
HD Live streaming from Space Station
objects crossing your sky now

USA 270

Track USA 270 now!


NORAD ID: 41744
Int'l Code: 2016-052A
Perigee: 35,763.3 km
Apogee: 35,769.1 km
Inclination: 2.7 °
Period: 1,434.7 minutes
Semi major axis: 42137 km
RCS: Unknown
Launch date: August 19, 2016
Source: United States (US)
Launch site: AIR FORCE EASTERN TEST RANGE (AFETR)
Your satellite tracking list
Your tracking list is empty




NASA's NSSDC Master Catalog

Two Line Element Set (TLE):
1 41744U 16052A   24325.67134083 -.00000278  00000-0  00000+0 0  9999
2 41744   2.7203  84.4899 0000688 339.2054 332.2331  1.00370057 22370
Source of the keplerian elements: McCants